Flag for Poland Weather past 2 weeks in Tychy, Poland

Now
32 °F

Sunny.


Feels Like: 29 °F
Forecast: 36 / 52 °F
Wind: 3 mph from West

Location: Katowice Airport

Current Time: Apr 19, 2015 at 7:46:15 AM

Latest Report: Apr 19, 2015 at 7:00 AM


Visibility: 10 mi

Pressure: 30.15 "Hg

Humidity: 93%

Dew point: 30 °F

Location of TychyLocation

Historic Weather in Tychy — Graph

°F

Tychy temperature yesterday

Maximum temperature yesterday: 43 °F (at 2:00 PM)
Minimum temperature yesterday: 32 °F (at 6:00 AM)
Average temperature yesterday: 38 °F

Past Weeks' High & Low Weather Summary

 TemperatureHumidityPressure
High68 °F (Apr 11, 2:30 PM)100% (Apr 4, 7:00 AM)30.48 "Hg (Apr 4, 7:00 AM)
Low28 °F (Apr 4, 11:30 PM)18% (Apr 9, 3:00 PM)29.83 "Hg (Apr 16, 2:30 AM)
Average45 °F66%30.14 "Hg
* Reported Apr 4 7:00 AM — Apr 19 7:00 AM, Tychy, Weather by CustomWeather, © 2015

Note: Actual official high and low records may vary slightly from our data, if they occured in-between our weather recording intervals... More about our weather records

Advertising

Tychy weather history for previous 24 hours

 ConditionsComfort  
Time TempWeatherWind HumidityBarometerVisibility
7:00 AM
Sun, Apr 19
32 °FSunny.3 mph93%30.15 "Hg10 mi
6:30 AM32 °FClear.6 mph93%30.12 "Hg10 mi
6:00 AM32 °FClear.6 mph93%30.12 "Hg10 mi
5:30 AM34 °FClear.3 mph93%30.12 "Hg10 mi
5:00 AM36 °FClear.3 mph87%30.12 "Hg10 mi
4:30 AM36 °FClear.5 mph87%30.12 "Hg10 mi
4:00 AM36 °FClear.3 mph87%30.12 "Hg10 mi
3:30 AM37 °FClear.5 mph87%30.12 "Hg10 mi
3:00 AM37 °FPassing clouds.6 mph87%30.12 "HgN/A
2:30 AM37 °FPassing clouds.3 mph87%30.12 "HgN/A
2:00 AM37 °FPassing clouds.9 mph87%30.12 "HgN/A
1:30 AM37 °FSprinkles. Passing clouds.6 mph87%30.12 "HgN/A
1:00 AM37 °FPassing clouds.6 mph87%30.15 "HgN/A
12:30 AM39 °FSprinkles. Passing clouds.5 mph81%30.12 "HgN/A
12:00 AM39 °FSprinkles. Passing clouds.10 mph81%30.15 "HgN/A
11:00 PM
Sat, Apr 18
37 °FSprinkles. Passing clouds.8 mph87%30.12 "HgN/A
10:30 PM39 °FSprinkles. Passing clouds.10 mph81%30.12 "HgN/A
10:00 PM39 °FSprinkles. Passing clouds.7 mph81%30.12 "HgN/A
9:30 PM37 °FPassing clouds.6 mph93%30.12 "HgN/A
9:00 PM37 °FSprinkles. Passing clouds.5 mph87%30.12 "HgN/A
8:30 PM39 °FSprinkles. Scattered clouds.12 mph81%30.12 "HgN/A
8:00 PM41 °FScattered clouds.10 mph70%30.09 "HgN/A
7:30 PM41 °FPassing clouds.10 mph70%30.09 "HgN/A
7:00 PM39 °FPartly sunny.5 mph81%30.09 "HgN/A
6:30 PM39 °FPartly sunny.5 mph81%30.09 "HgN/A
6:00 PM39 °FPartly sunny.12 mph81%30.09 "HgN/A
5:30 PM39 °FSnow flurries. Partly sunny.17 mph75%30.09 "HgN/A
5:00 PM43 °FScattered clouds.14 mph66%30.09 "HgN/A
4:30 PM41 °FScattered clouds.18 mph70%30.09 "HgN/A
4:00 PM43 °FPartly sunny.14 mph57%30.09 "HgN/A
3:30 PM43 °FPartly sunny.16 mph61%30.09 "HgN/A
3:00 PM41 °FSnow flurries. Partly sunny.18 mph61%30.09 "HgN/A
2:30 PM43 °FBroken clouds.16 mph57%30.09 "HgN/A
2:00 PM43 °FBroken clouds.18 mph61%30.09 "HgN/A
1:30 PM41 °FBroken clouds.16 mph66%30.09 "HgN/A
1:00 PM41 °FBroken clouds.10 mph61%30.09 "HgN/A
12:30 PM39 °FSprinkles. Broken clouds.14 mph65%30.09 "HgN/A
12:00 PM39 °FBroken clouds.17 mph65%30.09 "HgN/A
11:30 AM39 °FBroken clouds.15 mph65%30.09 "HgN/A
11:00 AM39 °FBroken clouds.14 mph70%30.07 "HgN/A
10:30 AM39 °FBroken clouds.16 mph65%30.07 "HgN/A
10:00 AM37 °FBroken clouds.14 mph75%30.07 "HgN/A
9:30 AM37 °FBroken clouds.14 mph75%30.07 "HgN/A
9:00 AM37 °FBroken clouds.10 mph75%30.04 "HgN/A
8:30 AM36 °FPartly sunny.14 mph81%30.04 "HgN/A
8:00 AM36 °FPartly sunny.13 mph87%30.04 "HgN/A
7:30 AM34 °FPartly sunny.10 mph93%30.04 "HgN/A
7:00 AM34 °FPartly sunny.8 mph87%30.04 "HgN/A
Weather by CustomWeather, © 2015

See weather overviewHow to use our weather pages